Hourly Weather Roundup
Issued by NWS Central Illinois

Current Version | Previous Version | Text Only | Print | Product List | Glossary On
Versions: 1 2 3 4 5 6 7 8 9 10 11 12 13 14 15 16 17 18 19 20 21 22 23 24 25 26 27 28 29 30 31 32 33 34 35 36 37 38 39 40 41 42 43 44 45 46 47 48 49 50
987
NZUS43 KILX 221810
HWRILX

Area Weather Roundup
National Weather Service Lincoln IL
100 PM CDT SUN OCT 22 2017

NOTE:  "FAIR" indicates few or no clouds below 12,000 feet, with
       no sigificant weather and/or obstructions to visibility.


CITY           SKY/WX    TMP DP  RH WIND       PRES   REMARKS
Bloomington    CLOUDY    68  63  84 S20G26    29.93F
6HR MIN TEMP:  62; 6HR MAX TEMP:  68; 6HR PCP:  0.02;

Champaign      CLOUDY    72  60  66 S21G30    29.96F
6HR MIN TEMP:  66; 6HR MAX TEMP:  73; 6HR PCP: TRACE;

Danville       CLOUDY    72  60  66 S21       29.95F
6HR MIN TEMP:  64; 6HR MAX TEMP:  72;

Decatur        CLOUDY    69  62  78 S13       29.95S
6HR MIN TEMP:  66; 6HR MAX TEMP:  70;

Effingham      CLOUDY    70  64  79 SE9G23    29.99F
6HR MIN TEMP:  64; 6HR MAX TEMP:  70; 6HR PCP:  0.02;

Flora          CLOUDY    73  63  71 S16G28    29.98S
6HR MIN TEMP:  66; 6HR MAX TEMP:  74;

Jacksonville   CLOUDY    54  53  95 NW15G23   30.01R FOG
6HR MIN TEMP:  54; 6HR MAX TEMP:  68; 6HR PCP:  0.09;

Lacon          DRIZZLE   54  53  99 NW14G24   29.98R
6HR MIN TEMP:  54; 6HR MAX TEMP:  65; 6HR PCP:  0.39;

Lawrenceville  MOSUNNY   76  60  57 S22G31    30.00F
6HR MIN TEMP:  65; 6HR MAX TEMP:  78; 6HR PCP:  0.01;

Litchfield     CLOUDY    60  59  97 W13       29.98R FOG
6HR MIN TEMP:  60; 6HR MAX TEMP:  69;

$$


CITY           SKY/WX    TMP DP  RH WIND       PRES   REMARKS
Lincoln        RAIN      59  59 100 NW8G16    29.96R
6HR MIN TEMP:  59; 6HR MAX TEMP:  71; 6HR PCP:  0.05;

Macomb         CLOUDY    53  49  87 N15       30.04F
6HR MIN TEMP:  53; 6HR MAX TEMP:  55; 6HR PCP:  0.19;

Mattoon        CLOUDY    69  62  78 S16G28    29.96F
6HR MIN TEMP:  64; 6HR MAX TEMP:  70; 6HR PCP:  0.01;

Mt Carmel AP   MOSUNNY   79  59  50 S25       29.99F HX  80
6HR MIN TEMP:  64; 6HR MAX TEMP:  79;

Olney-Noble AP CLOUDY    74  62  66 S17G28    29.99F
Paris AP       CLOUDY    72  63  74 S26       29.99F
6HR MIN TEMP:  62; 6HR MAX TEMP:  72; 6HR PCP:  0.02;

Peoria         LGT RAIN  54  53  97 NW12G23   29.99R FOG
6HR MIN TEMP:  54; 6HR MAX TEMP:  65; 6HR PCP:  0.47;

Pontiac        CLOUDY    71  65  83 S22       29.93S
6HR MIN TEMP:  65; 6HR MAX TEMP:  71; 6HR PCP:  0.02;

Rantoul        CLOUDY    71  63  75 S18G28    29.96S
6HR MIN TEMP:  64; 6HR MAX TEMP:  72;

Robinson       PTSUNNY   75  60  58 S17G24    30.00F
6HR MIN TEMP:  63; 6HR MAX TEMP:  76;

Springfield    LGT RAIN  58  56  93 NW15      29.98R
6HR MIN TEMP:  58; 6HR MAX TEMP:  72; 6HR PCP: TRACE;

Taylorville    CLOUDY    66  62  86 W8G18     29.96R
6HR MIN TEMP:  65; 6HR MAX TEMP:  70; 6HR PCP:  0.03;

$$

...REGIONAL REPORTS...


CITY           SKY/WX    TMP DP  RH WIND       PRES   REMARKS
Chicago O`Hare CLOUDY    68  61  78 S15       29.91F
Kankakee       CLOUDY    71  60  67 S18G25    29.95F
Moline         CLOUDY    53  45  74 N10       30.01F
Mount Sterling CLOUDY    53  48  84 NW14G21   30.04R
Mount Vernon   CLOUDY    74  64  71 S23G31    29.97F
Pittsfield     LGT RAIN  54  50  87 NW18G26   30.05R
Quincy         CLOUDY    54  48  80 N8        30.05R
Rockford       LGT RAIN  51  49  92 N17G24    30.01R FOG
$$


CITY           SKY/WX    TMP DP  RH WIND       PRES   REMARKS
Burlington     CLOUDY    54  50  86 N9        30.03F
Cedar Rapids   CLOUDY    54  48  80 NW10      30.04R
Des Moines     CLOUDY    62  41  46 NW9       30.07F
Kirksville     CLOUDY    53  50  89 W6        30.10R
Ottumwa        CLOUDY    53  48  83 NW7       30.08R
St Louis       LGT RAIN  58  58 100 NW12G21   30.02R FOG
$$


CITY           SKY/WX    TMP DP  RH WIND       PRES   REMARKS
Terre Haute    PTSUNNY   76  59  55 S14G24    30.00F
Evansville     PTSUNNY   77  58  51 S13G25    30.04F
Indianapolis   PTSUNNY   78  59  51 S17       30.04F
Lafayette      CLOUDY    72  59  63 S10G24    29.98F
Madison        LGT RAIN  51  47  86 VRB5      30.00S
Milwaukee      RAIN      57  55  93 NW21G32   29.95R VSB 1
$$






USA.gov is the U.S. government's official web portal to all federal, state and local government web resources and services.